This is the latest recevied weather packets stored in our database for station/object KC5TIL-3. If no packets are shown the sender has not sent any weather packets the latest 10 day(s).
| Time | Temp. | Humidity | Pressure | Rain* | Wind** | Luminosity | Snow |
|---|---|---|---|---|---|---|---|
| 1777872552 | 19.44° C | 23% | 1012.8 hPa | 0 mm | 2.24 m/s, 144° | - | - |
| 1777872250 | 19.44° C | 23% | 1012.8 hPa | 0 mm | 2.68 m/s, 225° | - | - |
| 1777871953 | 19.44° C | 23% | 1012.8 hPa | 0 mm | 1.79 m/s, 223° | - | - |
| 1777871649 | 20° C | 23% | 1012.8 hPa | 0 mm | 2.24 m/s, 159° | - | - |
| 1777871347 | 20° C | 23% | 1012.8 hPa | 0 mm | 2.68 m/s, 204° | - | - |
| 1777870751 | 20° C | 23% | 1012.8 hPa | 0 mm | 2.24 m/s, 222° | - | - |
| 1777870450 | 20° C | 22% | 1012.8 hPa | 0 mm | 3.58 m/s, 194° | - | - |
| 1777870152 | 20° C | 22% | 1013.8 hPa | 0 mm | 3.13 m/s, 245° | - | - |
| 1777869853 | 20° C | 22% | 1013.8 hPa | 0 mm | 2.68 m/s, 177° | - | - |
| 1777869553 | 20.56° C | 22% | 1013.8 hPa | 0 mm | 3.13 m/s, 205° | - | - |
| 1777868654 | 20.56° C | 22% | 1013.8 hPa | 0 mm | 2.68 m/s, 222° | - | - |
| 1777868357 | 20.56° C | 22% | 1013.8 hPa | 0 mm | 2.68 m/s, 208° | - | - |
| 1777868058 | 20.56° C | 22% | 1013.8 hPa | 0 mm | 2.68 m/s, 149° | - | - |
| 1777867757 | 20.56° C | 22% | 1013.8 hPa | 0 mm | 2.24 m/s, 160° | - | - |
| 1777867459 | 20.56° C | 22% | 1013.8 hPa | 0 mm | 2.68 m/s, 244° | - | - |
| 1777866253 | 20.56° C | 19% | 1013.8 hPa | 0 mm | 2.24 m/s, 197° | - | - |
| 1777865952 | 20.56° C | 19% | 1013.8 hPa | 0 mm | 2.68 m/s, 196° | - | - |
| 1777865655 | 20.56° C | 19% | 1013.8 hPa | 0 mm | 2.24 m/s, 220° | - | - |
| 1777865356 | 20.56° C | 19% | 1013.8 hPa | 0 mm | 2.24 m/s, 115° | - | - |
| 1777864757 | 21.11° C | 19% | 1013.8 hPa | 0 mm | 2.24 m/s, 201° | - | - |
| 1777864458 | 21.11° C | 19% | 1013.8 hPa | 0 mm | 2.68 m/s, 155° | - | - |
| 1777864152 | 21.11° C | 19% | 1013.8 hPa | 0 mm | 2.24 m/s, 181° | - | - |
| 1777863854 | 21.11° C | 19% | 1013.8 hPa | 0 mm | 2.68 m/s, 128° | - | - |
| 1777863556 | 21.11° C | 19% | 1013.8 hPa | 0 mm | 2.68 m/s, 218° | - | - |
| 1777863255 | 21.11° C | 19% | 1013.8 hPa | 0 mm | 2.24 m/s, 124° | - | - |
* Rain latest hour (hover to see other rain measurements)
** Current wind speed in m/s (hover to see current wind gust speed)